千帆星座-45 (QIANFAN-45)

基本信息
目录编号:
62246
目录名称:
QIANFAN-45
国际标识:
2024-232K
轨道中心:
EARTH
卫星名称:
千帆星座-45
卫星全名:
千帆星座-45 (QIANFAN-45)
卫星状态:
在轨 (已飞行317 天)
发射日期:
2024-12-05 UTC
国别 :
中国 (CN)
星等 :
--
轨道信息
数据来源 国际轨道数据
星历时间: 2025-10-18T06:36:41+0800
7小时前
查看轨道信息
半长轴: 7446.803km
偏心率: 0.0013854
轨道倾角: 89.003°
近地点辐角 1.694°
升交点赤经 46.834°
平近点角 358.425°
近地点: 1058.351km
远地点: 1078.985km
周期: 106.590分钟
每日圈数: 13.509772
详细信息
卫星平台:
45
覆盖范围:
全球
运营商:
上海垣信卫星科技有限公司
运营商所在国:
中国
使用方式:
暂无
卫星简介
千帆星座,也被称为“G60星链”计划,是中国版“星链”的重要组成部分,旨在打造一个由1.4万多颗低轨宽频多媒体卫星构成的庞大星座。千帆星座计划由上海垣信卫星科技有限公司负责实施,于2023年启动建设。该项目是我国第二个低轨卫星大星座,旨在通过构建庞大的卫星网络,为全球用户提供高质量的通信和宽带互联网服务。
2D轨道图
3D轨道图
轨道高度分析图
轨道倾角分析图
轨道综合分析图
查看轨道综合分析图